Tracking 35237 objects as of 6-Sep-2026
HD Live streaming from Space Station
objects crossing your sky now

NOAA 17 DEB

Track NOAA 17 DEB now!
10-day predictions


NORAD ID: 48729
Int'l Code: 2002-032BP
Launch date: June 24, 2002
Source: United States (US)
Launch site: AIR FORCE WESTERN TEST RANGE (AFWTR)

Note: This is SATELLITE DEBRIS
Your satellite tracking list
Your tracking list is empty




NASA's NSSDC Master Catalog

Two Line Element Set (TLE):
1 48729U 02032BN  26248.60503179  .00007061  00000-0  11678-2 0  9999
2 48729  98.4812 204.9604 0012077  16.9739 343.1868 14.70614432286024
Source of the keplerian elements: AFSPC